Flag for Japan Weather past 2 weeks in Hamamatsu, Japan

Now
54 °F

Fog.


Feels Like: 54 °F
Forecast: 44 / 67 °F
Wind: 3 mph from Northeast

Location: Omaezaki

Current Time: Mar 30, 2015 at 11:21:20 PM

Latest Report: Mar 30, 2015 at 10:00 PM


Visibility: 4 mi

Pressure: 30.18 "Hg

Humidity: 90%

Dew point: 51 °F

Location of HamamatsuLocation

Historic Weather in Hamamatsu — Graph

°F

Hamamatsu temperature yesterday

Maximum temperature yesterday: 64 °F (at 10:00 AM)
Minimum temperature yesterday: 50 °F (at 5:00 AM)
Average temperature yesterday: 56 °F

Past Weeks' High & Low Weather Summary

 TemperatureHumidityPressure
High64 °F (Mar 28, 1:00 PM)100% (Mar 16, 1:00 PM)30.46 "Hg (Mar 16, 1:00 PM)
Low36 °F (Mar 26, 5:00 AM)22% (Mar 23, 9:00 AM)29.66 "Hg (Mar 19, 3:00 PM)
Average54 °F71%30.08 "Hg
* Reported Mar 15 10:00 PM — Mar 30 10:00 PM, Hamamatsu, Weather by CustomWeather, © 2015

Note: Actual official high and low records may vary slightly from our data, if they occured in-between our weather recording intervals... More about our weather records

Advertising

Hamamatsu weather history for previous 24 hours

 ConditionsComfort  
Time TempWeatherWind HumidityBarometerVisibility
10:00 PM
Mon, Mar 30
54 °FFog.3 mph90%30.18 "Hg4 mi
9:00 PM54 °FFog.3 mph88%30.18 "Hg5 mi
8:00 PM57 °FFog.6 mph85%30.16 "Hg6 mi
7:00 PM57 °FFog.5 mph82%30.14 "Hg5 mi
6:00 PM59 °FCool.5 mph75%30.11 "Hg11 mi
5:00 PM61 °FCool.5 mph68%30.10 "Hg12 mi
4:00 PM63 °FMild.8 mph61%30.09 "Hg12 mi
3:00 PM62 °FRefreshingly cool.7 mph56%30.09 "Hg12 mi
2:00 PM63 °FMild.6 mph50%30.08 "Hg12 mi
1:00 PM63 °FMild.6 mph50%30.09 "Hg12 mi
11:00 AM61 °FCool.7 mph74%30.11 "Hg12 mi
10:00 AM59 °FCool.5 mph72%30.10 "Hg12 mi
9:00 AM57 °FCool.3 mph76%30.09 "Hg12 mi
8:00 AM54 °FCool.2 mph78%30.08 "Hg12 mi
7:00 AM52 °FCool.1 mph84%30.05 "Hg12 mi
5:00 AM49 °FCool.6 mph89%30.00 "Hg12 mi
4:00 AM49 °FCool.6 mph87%29.98 "Hg12 mi
3:00 AM48 °FCool.6 mph87%29.95 "Hg12 mi
2:00 AM48 °FCool.6 mph88%29.95 "Hg12 mi
1:00 AM49 °FCool.7 mph87%29.93 "Hg12 mi
12:00 AM50 °FCool.3 mph89%29.94 "Hg12 mi
11:00 PM
Sun, Mar 29
53 °FCool.7 mph84%29.93 "Hg11 mi
Weather by CustomWeather, © 2015

See weather overviewHow to use our weather pages